[[{"header":{"parameterUnit":"m.s-1","parameterCategory":1,"la1":30.2991,"la2":30.254,"lo1":-89.0895,"lo2":-89.0444,"dy":0.0017,"dx":0.0017,"nx":28,"ny":28,"refTime":"2025-12-28T03:00:00:Z","depth":0,"parameterNumber":2,"parameterNumberName":"U-component_of_WINDS"},"data":[0,0,0,0,0,0,0,0,0,0,0,0,0,0,0,0,0,0,0,0,0,0,0,0,0,0,0,0,0,0,0,0,0,0,0,0,0,0,0,0,0,0,0,0,0,0,0,0,0,0,0,0,0,0,0,0,0,0,1.9297,1.9297,0,1.9319,1.932,1.932,1.9298,1.9297,1.9296,1.9295,1.9318,1.9319,1.9321,0,0,0,0,0,0,0,0,0,0,0,0,0,1.9236,1.9237,1.9297,1.9297,1.9298,1.9319,1.932,1.932,1.9298,1.9297,1.9296,1.9295,1.9318,1.9319,1.9321,0,0,0,0,0,0,0,0,0,0,0,0,0,1.9261,1.9238,1.9297,1.9289,1.9289,1.9319,1.932,1.932,1.9298,1.9297,1.9296,1.9294,1.9317,1.9319,1.9321,1.936,0,0,1.9328,1.9329,0,0,0,0,0,0,0,0,1.9259,1.9263,1.929,1.929,1.9289,1.9305,1.9307,1.9334,1.9299,1.9295,1.9295,1.9294,1.9315,1.9317,1.9324,1.9362,1.9363,1.9328,1.9329,1.933,1.9331,0,0,0,0,0,0,0,1.9258,1.9262,1.9306,1.929,1.929,1.9285,1.9287,1.9312,1.9312,1.9295,1.9293,1.9296,1.9314,1.9322,1.9324,1.9363,1.9328,1.933,1.9331,1.9332,1.9436,1.9437,0,0,0,0,0,0,1.9257,1.9261,1.9305,1.9307,1.9271,1.9287,1.9289,1.9301,1.9311,1.9312,1.9297,1.9295,1.9319,1.9322,1.9325,1.9373,1.933,1.9332,1.9333,1.9434,1.9436,1.9438,0,0,0,0,0,0,1.9256,1.9261,1.9304,1.9283,1.9288,1.929,1.9303,1.9302,1.931,1.9313,1.9313,1.9305,1.9318,1.9322,1.9352,1.9373,1.9333,1.9335,1.9433,1.9435,1.9437,1.9468,0,0,0,0,0,0,1.9254,1.9261,1.9275,1.9284,1.929,1.9331,1.9304,1.9303,1.9314,1.9311,1.9321,1.9321,1.9317,1.9349,1.9354,1.9375,1.9337,1.9431,1.9434,1.9436,1.9465,1.9471,1.9476,0,0,0,0,0,1.9252,1.9283,1.9276,1.9282,1.9308,1.9332,1.9335,1.9331,1.9315,1.933,1.9333,1.9321,1.937,1.9352,1.9358,1.938,1.9429,1.9433,1.9436,1.9462,1.947,1.9476,0,0,0,0,0,0,1.9276,1.9283,1.9276,1.9311,1.9321,1.9328,1.9347,1.9338,1.9353,1.935,1.9343,1.9346,1.9378,1.9382,1.9362,1.942,1.9397,1.9402,1.9415,1.9422,1.9428,1.9426,1.9338,0,0,0,0,0,1.9285,1.9304,1.931,1.934,1.9345,1.9345,1.9356,1.9351,1.9362,1.9366,1.937,1.9381,1.9399,1.9411,1.9428,1.9466,1.9468,1.9484,1.9489,1.9494,1.9498,1.9519,1.9527,1.9449,1.9449,1.9449,0,0,1.9305,1.9311,1.9323,1.9345,1.9352,1.9373,1.9349,1.9371,1.9386,1.9369,1.9398,1.9402,1.9414,1.9448,1.9464,1.9453,1.952,1.9498,1.9501,1.9503,1.9524,1.9531,1.9538,1.9451,1.9451,1.945,0,0,1.935,1.9357,1.9383,1.9391,1.9403,1.9404,1.941,1.9419,1.9421,1.945,1.9439,1.9457,1.9488,1.9497,1.9505,1.9557,1.9547,1.9563,1.9591,1.9612,1.9619,1.9624,1.9643,1.965,1.9567,1.9567,1.9567,0,1.9373,1.9403,1.9398,1.9421,1.9431,1.9418,1.9445,1.9453,1.947,1.9477,1.9465,1.9505,1.9511,1.9549,1.9561,1.9569,1.9576,1.9561,1.9618,1.9623,1.9628,1.9647,1.9654,1.9569,1.9568,1.9568,1.9568,0,1.943,1.9451,1.9471,1.9488,1.9501,1.9526,1.9525,1.9539,1.9534,1.9536,1.9566,1.9574,1.9593,1.9602,1.9597,1.9639,1.9632,1.9619,1.9596,1.9638,1.9655,1.9662,1.9571,1.9571,1.957,1.957,0,0,1.949,1.9506,1.9513,1.9521,1.9534,1.9551,1.9576,1.9595,1.9607,1.9619,1.9641,1.9668,1.9657,1.9667,1.9663,1.9682,1.9724,1.9667,1.9667,1.9678,1.9772,1.9781,1.9789,1.9717,1.9719,1.972,1.9771,0,1.9537,1.958,1.9577,1.9618,1.9638,1.9627,1.9649,1.966,1.9663,1.968,1.9683,1.9703,1.9687,1.9693,1.9711,1.9715,1.9742,1.9711,1.9737,1.9738,1.9735,1.9798,1.9808,1.9856,1.9778,1.9779,1.9779,0,1.9596,1.9612,1.9655,1.9667,1.9675,1.9695,1.9713,1.973,1.9742,1.9743,1.9755,1.9749,1.9775,1.9753,1.9789,1.9768,1.9779,1.9783,1.9785,1.9787,1.9761,1.9802,1.9871,1.9879,1.979,1.9789,1.9788,0,1.9636,1.9668,1.9698,1.9706,1.972,1.9734,1.9741,1.9752,1.9764,1.978,1.9788,1.9807,1.9817,1.9832,1.9831,1.9815,1.9869,1.9846,1.9871,1.9871,1.9882,1.9881,1.9954,1.9889,1.9889,1.9889,1.9889,0,1.9689,1.9716,1.9717,1.9735,1.9766,1.9763,1.9794,1.9799,1.9809,1.9829,1.982,1.9839,1.9837,1.9857,1.9857,1.9888,1.9892,1.9894,1.9894,1.9895,1.9895,1.9902,1.9898,1.9891,1.9891,1.989,1.989,0,1.9738,1.974,1.9772,1.9784,1.9787,1.9809,1.9819,1.9838,1.984,1.9866,1.9872,1.9876,1.9899,1.99,1.9926,1.9926,1.9963,1.9959,1.9959,1.9958,1.9983,1.9981,2.0063,2.0074,2.0002,2.0003,2.0003,0,1.9771,1.9792,1.9806,1.9819,1.9827,1.9847,1.986,1.9859,1.9872,1.9889,1.9906,1.9928,1.9945,1.9982,1.9988,2.0008,2.0004,2.0032,2.0007,2.0008,2.0005,2.0004,2.0007,2.0036,2.0037,2.0038,2.0038,0,1.983,1.983,1.9849,1.9868,1.9884,1.9899,1.9913,1.9924,1.9925,1.9941,1.9964,1.9978,2.0005,2.0027,2.0047,2.0054,2.0047,2.0046,2.0053,2.0054,2.0054,2.0055,1.9972,2.0044,2.0043,2.0043,2.0043,2.0042,1.9873,1.9891,1.9904,1.9926,1.9937,1.995,1.9968,1.9974,1.9993,2.0016,2.0014,2.004,2.0054,2.008,2.0089,2.011,2.0101,2.011,2.0113,2.0115,2.0118,2.0051,2.0114,2.0113,2.0113,2.0113,2.0113,0,1.9931,1.994,1.996,1.998,1.9997,1.9989,2.0005,2.002,2.0043,2.0057,2.0075,2.0102,2.0124,2.0133,2.0154,2.0169,2.0167,2.0175,2.0174,2.0176,2.0125,2.0117,2.0177,2.0177,2.0177,2.0177,2.0177,2.0177,1.9964,1.9995,1.9997,2.0034,2.0043,2.0068,2.0078,2.0091,2.0102,2.0134,2.0152,2.0158,2.0169,2.0192,2.0212,2.0214,2.0223,2.0233,2.0234,2.0186,2.0179,2.0173,2.0166,2.0235,2.0235,2.0283,2.0283,2.0284]},{"header":{"parameterUnit":"m.s-1","parameterCategory":1,"la1":30.2991,"la2":30.254,"lo1":-89.0895,"lo2":-89.0444,"dy":0.0017,"dx":0.0017,"nx":28,"ny":28,"refTime":"2025-12-28T03:00:00:Z","depth":0,"parameterNumber":3,"parameterNumberName":"V-component_of_WINDS"},"data":[0,0,0,0,0,0,0,0,0,0,0,0,0,0,0,0,0,0,0,0,0,0,0,0,0,0,0,0,0,0,0,0,0,0,0,0,0,0,0,0,0,0,0,0,0,0,0,0,0,0,0,0,0,0,0,0,0,0,-7.0286,-7.0288,0,-7.0443,-7.0445,-7.0447,-7.0413,-7.041,-7.0407,-7.0404,-7.0561,-7.0568,-7.0575,0,0,0,0,0,0,0,0,0,0,0,0,0,-6.9955,-6.9962,-7.0286,-7.0288,-7.029,-7.0443,-7.0445,-7.0447,-7.0414,-7.041,-7.0406,-7.0403,-7.0559,-7.0567,-7.0575,0,0,0,0,0,0,0,0,0,0,0,0,0,-7.0104,-6.9964,-7.0286,-7.0292,-7.0294,-7.0443,-7.0445,-7.0448,-7.0414,-7.041,-7.0406,-7.0401,-7.0556,-7.0566,-7.0576,-7.0728,0,0,-7.0608,-7.0612,0,0,0,0,0,0,0,0,-7.0096,-7.0116,-7.0289,-7.0292,-7.0294,-7.0404,-7.0386,-7.0542,-7.0415,-7.0369,-7.0404,-7.0399,-7.0512,-7.0526,-7.0565,-7.0735,-7.0742,-7.0609,-7.0615,-7.062,-7.0623,0,0,0,0,0,0,0,-7.0086,-7.0109,-7.0348,-7.0292,-7.0295,-7.0286,-7.0302,-7.0415,-7.0463,-7.0372,-7.037,-7.0389,-7.0513,-7.0555,-7.0568,-7.0744,-7.0609,-7.0618,-7.0624,-7.0628,-7.1049,-7.1054,0,0,0,0,0,0,-7.0073,-7.0101,-7.0343,-7.0353,-7.0182,-7.0296,-7.0314,-7.0373,-7.0462,-7.0471,-7.0393,-7.0387,-7.0539,-7.0556,-7.0574,-7.0759,-7.062,-7.0629,-7.0635,-7.1044,-7.105,-7.1055,0,0,0,0,0,0,-7.0066,-7.0095,-7.0337,-7.0227,-7.0257,-7.0306,-7.0373,-7.0379,-7.0421,-7.0477,-7.0485,-7.0428,-7.0537,-7.0559,-7.0691,-7.0764,-7.0634,-7.0643,-7.1038,-7.1046,-7.1053,-7.1129,0,0,0,0,0,0,-7.0057,-7.0093,-7.0151,-7.0228,-7.0263,-7.0452,-7.0377,-7.0385,-7.0439,-7.0433,-7.0512,-7.0521,-7.0535,-7.0675,-7.0701,-7.0776,-7.0651,-7.1032,-7.1042,-7.105,-7.112,-7.1138,-7.1153,0,0,0,0,0,-7.0045,-7.0165,-7.0154,-7.0184,-7.0337,-7.0456,-7.0476,-7.0491,-7.0445,-7.0504,-7.0541,-7.0518,-7.0751,-7.0689,-7.0717,-7.0796,-7.1027,-7.1039,-7.105,-7.1113,-7.1135,-7.1153,0,0,0,0,0,0,-7.0093,-7.0175,-7.0164,-7.0312,-7.0378,-7.0451,-7.0525,-7.0514,-7.0592,-7.0583,-7.0598,-7.0616,-7.075,-7.0786,-7.0715,-7.0949,-7.0883,-7.09,-7.0921,-7.0942,-7.0958,-7.0948,-7.066,0,0,0,0,0,-7.0121,-7.0213,-7.0278,-7.0403,-7.0437,-7.0476,-7.0528,-7.0535,-7.0602,-7.063,-7.0676,-7.0741,-7.083,-7.0887,-7.0972,-7.1125,-7.1142,-7.1193,-7.121,-7.1223,-7.1238,-7.1325,-7.1349,-7.1092,-7.1092,-7.1092,0,0,-7.018,-7.0236,-7.0292,-7.0414,-7.0466,-7.056,-7.0499,-7.06,-7.067,-7.0644,-7.0773,-7.0809,-7.0883,-7.1027,-7.1093,-7.1061,-7.1313,-7.1237,-7.1248,-7.1256,-7.1339,-7.1363,-7.1384,-7.11,-7.1098,-7.1097,0,0,-7.0335,-7.0386,-7.0497,-7.055,-7.063,-7.0656,-7.0682,-7.0757,-7.0781,-7.091,-7.0894,-7.0976,-7.1128,-7.1182,-7.123,-7.1409,-7.1391,-7.1435,-7.1523,-7.1607,-7.1627,-7.1645,-7.1711,-7.1734,-7.145,-7.145,-7.145,0,-7.0397,-7.0539,-7.0554,-7.0659,-7.0714,-7.0697,-7.081,-7.086,-7.0963,-7.1001,-7.0964,-7.1156,-7.1204,-7.1362,-7.1406,-7.1444,-7.1476,-7.1427,-7.1623,-7.1641,-7.1658,-7.1721,-7.1746,-7.1455,-7.1455,-7.1454,-7.1454,0,-7.0613,-7.0712,-7.0792,-7.0894,-7.0958,-7.1065,-7.1097,-7.1159,-7.1161,-7.119,-7.1323,-7.1381,-7.1478,-7.1515,-7.1516,-7.1674,-7.1653,-7.1619,-7.1553,-7.1688,-7.1747,-7.1771,-7.1463,-7.1461,-7.1459,-7.1458,0,0,-7.0802,-7.0914,-7.0943,-7.0991,-7.1078,-7.1155,-7.1262,-7.1359,-7.1413,-7.1484,-7.1576,-7.1705,-7.1676,-7.173,-7.1737,-7.1811,-7.1952,-7.1769,-7.1771,-7.1803,-7.2132,-7.2158,-7.2185,-7.194,-7.1945,-7.1949,-7.2126,0,-7.0967,-7.1159,-7.1177,-7.1348,-7.1441,-7.1427,-7.1521,-7.1584,-7.1615,-7.1698,-7.173,-7.1823,-7.1777,-7.181,-7.1882,-7.1919,-7.2018,-7.1906,-7.2026,-7.203,-7.201,-7.2216,-7.2243,-7.2408,-7.2149,-7.2153,-7.2156,0,-7.1185,-7.1266,-7.1448,-7.1526,-7.1565,-7.1649,-7.1741,-7.1819,-7.1892,-7.1909,-7.1971,-7.1969,-7.208,-7.2009,-7.2163,-7.2086,-7.2136,-7.2162,-7.2169,-7.2182,-7.2102,-7.2236,-7.2461,-7.2486,-7.2193,-7.219,-7.2187,0,-7.1308,-7.1462,-7.1592,-7.1632,-7.1725,-7.1785,-7.1826,-7.1895,-7.1953,-7.2032,-7.207,-7.216,-7.221,-7.228,-7.2303,-7.2249,-7.2457,-7.2387,-7.2475,-7.2474,-7.252,-7.2517,-7.2757,-7.2549,-7.2548,-7.2548,-7.2547,0,-7.1492,-7.1604,-7.1649,-7.1728,-7.1854,-7.1873,-7.1997,-7.2034,-7.2096,-7.2183,-7.2175,-7.2256,-7.228,-7.2366,-7.2384,-7.251,-7.2531,-7.2549,-7.2553,-7.2551,-7.2549,-7.2585,-7.2575,-7.2555,-7.2553,-7.2552,-7.2551,0,-7.1651,-7.1685,-7.1826,-7.1903,-7.1925,-7.2015,-7.208,-7.2157,-7.2187,-7.2297,-7.2324,-7.2371,-7.2472,-7.2501,-7.2621,-7.2633,-7.2782,-7.2774,-7.2758,-7.2759,-7.2846,-7.2838,-7.3119,-7.3158,-7.2922,-7.2924,-7.2926,0,-7.1766,-7.1853,-7.1941,-7.1999,-7.2044,-7.2138,-7.2198,-7.222,-7.2283,-7.2373,-7.244,-7.254,-7.2621,-7.2783,-7.2827,-7.2919,-7.2915,-7.3007,-7.2929,-7.2925,-7.2919,-7.2915,-7.2924,-7.3022,-7.3025,-7.3027,-7.3028,0,-7.1969,-7.1983,-7.207,-7.2165,-7.2237,-7.2312,-7.2384,-7.2432,-7.2465,-7.2536,-7.264,-7.2704,-7.2828,-7.2928,-7.3022,-7.3064,-7.3053,-7.3053,-7.3078,-7.3078,-7.3067,-7.3077,-7.2801,-7.3046,-7.3044,-7.3043,-7.3042,-7.3041,-7.2112,-7.2189,-7.2264,-7.2362,-7.242,-7.2488,-7.2565,-7.2606,-7.2693,-7.2798,-7.2805,-7.2919,-7.299,-7.3116,-7.3163,-7.3252,-7.3225,-7.3261,-7.3271,-7.328,-7.3289,-7.3051,-7.3269,-7.3268,-7.3268,-7.3267,-7.3267,0,-7.2316,-7.2364,-7.2455,-7.2557,-7.2635,-7.2619,-7.2698,-7.2764,-7.2865,-7.2934,-7.3015,-7.3136,-7.3233,-7.3286,-7.3383,-7.3444,-7.3442,-7.3469,-7.3466,-7.3476,-7.3306,-7.3275,-7.347,-7.347,-7.347,-7.347,-7.347,-7.347,-7.2432,-7.2563,-7.2585,-7.2745,-7.2792,-7.2905,-7.2952,-7.3015,-7.307,-7.3206,-7.3288,-7.3322,-7.3385,-7.3487,-7.3576,-7.3589,-7.3626,-7.3657,-7.3667,-7.3508,-7.3487,-7.3468,-7.3439,-7.3665,-7.3665,-7.383,-7.3832,-7.3833]}]]